Weather History for KEST - January, 2012

Change the Weather History Date:

Sunday, January 8, 2012

  Actual Average Record
Temperature  
Mean Temperature 30 °F 15 °F  
Max Temperature 42 °F 24 °F 57 °F (2002)
Min Temperature 18 °F 7 °F -22 °F (1988)
Degree Days  
Heating Degree Days 35 50  
Month to date heating degree days 290 395  
Since 1 July heating degree days 2976 3538  
Cooling Degree Days 0 0  
Month to date cooling degree days 0 0  
Year to date cooling degree days 0 0  
Moisture  
Dew Point 23 °F    
Average Humidity 73    
Maximum Humidity 92    
Minimum Humidity 53    
Precipitation  
Precipitation 0.00 in 0.01 in 0.31 in (1989)
Month to date precipitation T 0.06  
Year to date precipitation T  
Sea Level Pressure  
Sea Level Pressure 30.26 in    
Wind  
Wind Speed 8 mph (SW)    
Max Wind Speed 17 mph    
Max Gust Speed 22 mph    
Visibility 10 miles    
Events      
T = Trace of Precipitation, MM = Missing Value Source: NWS Daily Summary

Daily Weather History Graph

Daily Weather History Graph

Search for Another Location

Airport or City:

Trip Planner

Search our weather history database for the weather conditions in past years. The results will help you decide how hot, cold, wet, or windy it might be!

Date:

Astronomy

Jan. 08, 2012 Rise Set
Actual Time 7:51 AM CST 5:00 PM CST
Civil Twilight 7:19 AM CST 5:32 PM CST
Nautical Twilight 6:43 AM CST 6:08 PM CST
Astronomical Twilight 6:08 AM CST 6:42 PM CST
Moon 4:44 PM CST (1/8) 7:10 AM CST (1/8)
Length of Visible Light 10h 13m
Length of Day
9h 08m
Full, 100% of the Moon is Illuminated
Jan 8
Full
Jan 9
Full
Jan 16
Last Quarter
Jan 23
New
Jan 30
First Quarter

Hourly Weather History & Observations

Time (CST) Temp. Windchill Dew Point Humidity Pressure Visibility Wind Dir Wind Speed Gust Speed Precip Events Conditions
12:52 AM 23.0 °F 14.7 °F 19.9 °F 88% 30.26 in 10.0 mi WSW 6.9 mph - N/A   Clear
1:52 AM 23.0 °F 18.4 °F 19.9 °F 88% 30.25 in 10.0 mi West 3.5 mph - N/A   Clear
2:52 AM 21.0 °F - 18.0 °F 88% 30.27 in 10.0 mi Calm Calm - N/A   Clear
3:52 AM 21.0 °F 14.6 °F 18.0 °F 88% 30.27 in 10.0 mi WSW 4.6 mph - N/A   Clear
5:52 AM 19.9 °F 10.1 °F 18.0 °F 92% 30.30 in 10.0 mi SSW 8.1 mph - N/A   Clear
7:52 AM 18.0 °F 11.1 °F 16.0 °F 92% 30.31 in 10.0 mi WSW 4.6 mph - N/A   Clear
8:52 AM 21.0 °F 11.4 °F 18.0 °F 88% 30.32 in 10.0 mi SW 8.1 mph - N/A   Clear
9:52 AM 28.0 °F 21.7 °F 24.1 °F 85% 30.33 in 10.0 mi WSW 5.8 mph - N/A   Clear
10:52 AM 33.1 °F 27.7 °F 26.1 °F 75% 30.32 in 10.0 mi SW 5.8 mph - N/A   Clear
11:52 AM 36.0 °F 30.3 °F 27.0 °F 70% 30.30 in 10.0 mi WSW 6.9 mph - N/A   Clear
12:52 PM 39.9 °F 32.1 °F 26.1 °F 58% 30.28 in 10.0 mi WSW 13.8 mph - N/A   Clear
1:52 PM 42.1 °F 35.2 °F 28.0 °F 58% 30.26 in 10.0 mi WSW 12.7 mph - N/A   Clear
2:52 PM 42.1 °F 36.1 °F 27.0 °F 55% 30.27 in 10.0 mi West 10.4 mph - N/A   Clear
3:52 PM 39.9 °F 35.1 °F 28.9 °F 65% 30.26 in 10.0 mi WSW 6.9 mph - N/A   Clear
4:52 PM 37.0 °F 33.3 °F 27.0 °F 67% 30.25 in 10.0 mi SSW 4.6 mph - N/A   Clear
5:52 PM 35.1 °F 28.6 °F 24.1 °F 64% 30.25 in 10.0 mi SSW 8.1 mph - N/A   Clear
6:52 PM 30.0 °F 22.4 °F 24.1 °F 79% 30.25 in 10.0 mi South 8.1 mph - N/A   Clear
7:52 PM 28.9 °F 21.1 °F 23.0 °F 78% 30.25 in 10.0 mi South 8.1 mph - N/A   Clear
8:52 PM 34.0 °F 24.6 °F 25.0 °F 70% 30.22 in 10.0 mi SW 13.8 mph - N/A   Clear
9:52 PM 33.1 °F 23.0 °F 26.1 °F 75% 30.23 in 10.0 mi SW 15.0 mph - N/A   Clear
10:52 PM 32.0 °F 22.5 °F 26.1 °F 79% 30.20 in 10.0 mi SW 12.7 mph - N/A   Clear
11:52 PM 32.0 °F 22.1 °F 26.1 °F 79% 30.17 in 10.0 mi SW 13.8 mph - N/A   Clear